Location: *
(29.1167°S, 130.0000°E)
Time: 12:19:37
(UTC+00:00)

USA 229 DEB - Pass Details

Date: 21 July 2019
Orbit: 1003 x 1210 km, 63.4° (Epoch: 15 August)

Event Time Altitude Azimuth Distance (km) Brightness Sun altitude
Rises 09:56:02 0° 213° (SSW) 3,856 6.9 -16.0°
Reaches altitude 10° 09:58:45 10° 215° (SW) 2,871 6.2 -16.6°
Maximum altitude 10:05:23 64° 295° (WNW) 1,121 4.0 -18.0°
Drops below altitude 10° 10:11:47 10° 15° (NNE) 2,768 5.9 -19.3°
Sets 10:14:22 0° 18° (NNE) 3,709 6.5 -19.9°
